Total_Precipitation_Accumulation
0.56 0.47 0.53 0.50 0.39 0.48 0.70 0.57 0.43 0.28 0.25 0.28 0.28 0.31 0.31 0.25 0.20 0.14 0.13 0.11 0.10 0.11 0.13 0.13 0.14 0.16 0.19 0.22 0.24 0.26 0.28 0.29 0.30 0.31 0.33 0.35 0.34 0.34 0.34 0.35 0.36 0.38 0.38 0.38
0.60 0.35 0.36 0.37 0.29 0.35 0.43 0.35 0.29 0.21 0.22 0.19 0.21 0.26 0.27 0.20 0.13 0.09 0.08 0.06 0.05 0.06 0.08 0.09 0.09 0.10 0.12 0.16 0.18 0.20 0.22 0.22 0.22 0.23 0.23 0.24 0.24 0.24 0.24 0.26 0.30 0.34 0.38 0.42
0.63 0.34 0.35 0.34 0.24 0.28 0.32 0.26 0.22 0.22 0.18 0.13 0.17 0.23 0.27 0.20 0.12 0.07 0.05 0.05 0.04 0.04 0.04 0.05 0.06 0.09 0.14 0.17 0.17 0.18 0.19 0.17 0.17 0.19 0.21 0.20 0.20 0.24 0.29 0.33 0.37 0.42 0.46 0.50
0.56 0.47 0.50 0.31 0.19 0.19 0.22 0.18 0.15 0.13 0.09 0.09 0.14 0.16 0.17 0.17 0.14 0.09 0.05 0.03 0.03 0.02 0.03 0.03 0.05 0.09 0.15 0.22 0.24 0.28 0.30 0.26 0.22 0.23 0.28 0.33 0.38 0.42 0.50 0.58 0.62 0.66 0.69 0.69
0.39 0.33 0.23 0.13 0.11 0.12 0.16 0.14 0.08 0.07 0.05 0.05 0.06 0.13 0.15 0.13 0.14 0.11 0.06 0.04 0.03 0.03 0.03 0.04 0.05 0.08 0.13 0.22 0.29 0.34 0.37 0.40 0.39 0.42 0.48 0.53 0.61 0.67 0.69 0.76 0.77 0.74 0.73 0.70
0.27 0.20 0.09 0.06 0.03 0.04 0.08 0.11 0.04 0.03 0.03 0.03 0.03 0.08 0.12 0.15 0.18 0.18 0.14 0.08 0.05 0.05 0.06 0.08 0.10 0.14 0.21 0.29 0.38 0.44 0.49 0.54 0.56 0.57 0.60 0.62 0.63 0.63 0.62 0.62 0.60 0.54 0.50 0.45
0.20 0.15 0.02 0.01 0.01 0.01 0.05 0.08 0.03 0.04 0.04 0.03 0.04 0.04 0.05 0.09 0.15 0.17 0.19 0.18 0.17 0.16 0.18 0.20 0.22 0.29 0.38 0.45 0.53 0.58 0.59 0.63 0.64 0.61 0.58 0.54 0.47 0.41 0.37 0.34 0.31 0.27 0.25 0.23
0.08 0.11 0.04 0.02 0.01 0.02 0.02 0.01 0.01 0.02 0.03 0.04 0.03 0.03 0.03 0.05 0.09 0.11 0.15 0.19 0.23 0.27 0.27 0.28 0.33 0.40 0.47 0.53 0.55 0.52 0.46 0.43 0.39 0.34 0.30 0.27 0.23 0.21 0.19 0.17 0.16 0.15 0.13 0.11
0.04 0.05 0.03 0.02 0.02 0.01 0.02 0.02 0.02 0.02 0.03 0.03 0.04 0.04 0.04 0.04 0.04 0.05 0.06 0.08 0.12 0.17 0.20 0.20 0.22 0.24 0.26 0.25 0.23 0.20 0.16 0.14 0.13 0.12 0.11 0.11 0.11 0.11 0.10 0.10 0.10 0.09 0.09 0.09
0.04 0.03 0.03 0.02 0.01 0.02 0.02 0.02 0.03 0.02 0.02 0.02 0.03 0.04 0.04 0.04 0.05 0.05 0.06 0.05 0.05 0.06 0.06 0.06 0.06 0.06 0.06 0.06 0.06 0.06 0.06 0.06 0.07 0.07 0.07 0.07 0.07 0.07 0.07 0.07 0.08 0.09 0.10 0.10
0.06 0.05 0.03 0.03 0.02 0.02 0.02 0.02 0.03 0.03 0.03 0.03 0.03 0.03 0.04 0.04 0.04 0.05 0.05 0.06 0.06 0.07 0.07 0.07 0.07 0.06 0.06 0.06 0.06 0.06 0.06 0.07 0.08 0.09 0.10 0.11 0.11 0.11 0.12 0.12 0.13 0.14 0.13 0.13
0.07 0.04 0.03 0.03 0.02 0.02 0.02 0.02 0.02 0.02 0.03 0.03 0.03 0.04 0.04 0.04 0.04 0.04 0.04 0.05 0.06 0.07 0.09 0.09 0.08 0.08 0.08 0.08 0.08 0.08 0.09 0.09 0.10 0.11 0.12 0.12 0.13 0.13 0.15 0.15 0.17 0.18 0.17 0.17
0.02 0.01 0.01 0.01 0.01 0.01 0.01 0.01 0.02 0.02 0.02 0.03 0.03 0.03 0.03 0.03 0.04 0.04 0.04 0.04 0.05 0.06 0.07 0.08 0.08 0.08 0.09 0.09 0.10 0.10 0.11 0.13 0.14 0.15 0.15 0.16 0.17 0.17 0.17 0.19 0.21 0.21 0.20 0.20
0.01 0.01 0.01 0.01 0.01 0.01 0.01 0.01 0.02 0.03 0.03 0.03 0.02 0.02 0.02 0.03 0.03 0.03 0.04 0.05 0.05 0.06 0.06 0.06 0.06 0.07 0.08 0.09 0.10 0.11 0.12 0.14 0.16 0.15 0.16 0.18 0.19 0.19 0.19 0.20 0.19 0.18 0.20 0.25
0.02 0.02 0.02 0.02 0.01 0.01 0.01 0.01 0.01 0.01 0.01 0.01 0.02 0.02 0.03 0.03 0.03 0.03 0.03 0.04 0.05 0.05 0.05 0.05 0.05 0.06 0.07 0.08 0.09 0.10 0.12 0.13 0.15 0.15 0.16 0.18 0.19 0.20 0.20 0.20 0.20 0.19 0.21 0.24
0.03 0.03 0.03 0.03 0.03 0.02 0.02 0.02 0.02 0.02 0.02 0.02 0.02 0.03 0.04 0.04 0.03 0.04 0.04 0.04 0.04 0.04 0.05 0.06 0.06 0.06 0.07 0.07 0.08 0.10 0.11 0.16 0.19 0.18 0.18 0.18 0.19 0.20 0.20 0.20 0.19 0.19 0.19 0.22
0.07 0.06 0.05 0.05 0.05 0.04 0.04 0.05 0.05 0.05 0.04 0.04 0.03 0.03 0.03 0.03 0.03 0.03 0.03 0.03 0.03 0.03 0.04 0.05 0.06 0.07 0.07 0.08 0.09 0.10 0.12 0.16 0.21 0.19 0.16 0.17 0.19 0.21 0.22 0.22 0.21 0.19 0.17 0.21
0.09 0.09 0.08 0.07 0.07 0.07 0.07 0.07 0.06 0.05 0.05 0.04 0.04 0.03 0.03 0.03 0.03 0.03 0.03 0.03 0.03 0.04 0.04 0.05 0.06 0.06 0.07 0.08 0.09 0.11 0.12 0.14 0.16 0.16 0.17 0.19 0.22 0.23 0.23 0.22 0.21 0.20 0.18 0.21
0.09 0.10 0.10 0.09 0.08 0.09 0.09 0.09 0.07 0.06 0.05 0.05 0.05 0.05 0.04 0.04 0.04 0.04 0.04 0.04 0.04 0.05 0.05 0.05 0.08 0.08 0.08 0.09 0.12 0.12 0.13 0.15 0.16 0.16 0.17 0.21 0.23 0.20 0.20 0.21 0.21 0.20 0.20 0.21
0.10 0.11 0.12 0.11 0.10 0.09 0.10 0.10 0.09 0.08 0.07 0.07 0.07 0.06 0.06 0.05 0.05 0.05 0.05 0.05 0.06 0.06 0.06 0.06 0.07 0.07 0.08 0.09 0.12 0.12 0.12 0.14 0.15 0.16 0.18 0.20 0.21 0.20 0.19 0.20 0.21 0.21 0.21 0.22
0.13 0.12 0.13 0.14 0.14 0.13 0.12 0.12 0.11 0.11 0.10 0.09 0.09 0.09 0.08 0.07 0.06 0.05 0.06 0.06 0.06 0.06 0.06 0.07 0.06 0.06 0.08 0.11 0.13 0.12 0.12 0.14 0.16 0.18 0.20 0.21 0.22 0.21 0.21 0.21 0.21 0.22 0.22 0.22
0.11 0.12 0.13 0.13 0.13 0.13 0.13 0.13 0.13 0.13 0.12 0.12 0.12 0.11 0.10 0.09 0.08 0.07 0.07 0.07 0.07 0.08 0.08 0.07 0.06 0.08 0.11 0.13 0.13 0.12 0.13 0.15 0.17 0.20 0.21 0.22 0.22 0.22 0.21 0.21 0.22 0.21 0.21 0.22
0.09 0.10 0.12 0.13 0.13 0.12 0.13 0.14 0.14 0.14 0.13 0.14 0.14 0.14 0.13 0.11 0.10 0.10 0.10 0.09 0.08 0.08 0.08 0.07 0.10 0.13 0.15 0.14 0.13 0.14 0.16 0.17 0.18 0.19 0.20 0.20 0.20 0.20 0.20 0.20 0.19 0.20 0.20 0.20
0.07 0.07 0.07 0.08 0.08 0.09 0.10 0.10 0.11 0.12 0.13 0.15 0.14 0.14 0.13 0.12 0.11 0.10 0.09 0.10 0.09 0.10 0.09 0.10 0.13 0.15 0.16 0.15 0.14 0.16 0.17 0.18 0.18 0.18 0.18 0.17 0.17 0.17 0.17 0.17 0.17 0.17 0.17 0.17
0.04 0.04 0.04 0.04 0.05 0.05 0.06 0.07 0.08 0.09 0.10 0.12 0.12 0.11 0.10 0.10 0.11 0.11 0.10 0.09 0.09 0.10 0.10 0.11 0.12 0.13 0.14 0.14 0.15 0.16 0.16 0.16 0.17 0.18 0.17 0.16 0.15 0.15 0.14 0.14 0.15 0.15 0.14 0.14
0.02 0.02 0.02 0.02 0.02 0.02 0.03 0.04 0.05 0.07 0.08 0.09 0.10 0.09 0.09 0.09 0.09 0.10 0.10 0.09 0.09 0.11 0.11 0.11 0.11 0.12 0.13 0.13 0.14 0.13 0.13 0.13 0.13 0.14 0.13 0.13 0.13 0.14 0.13 0.13 0.13 0.13 0.13 0.13
0.02 0.02 0.02 0.01 0.01 0.02 0.02 0.02 0.03 0.04 0.05 0.07 0.08 0.09 0.10 0.10 0.10 0.10 0.09 0.09 0.10 0.11 0.10 0.10 0.11 0.12 0.12 0.12 0.12 0.11 0.11 0.11 0.11 0.11 0.11 0.12 0.12 0.13 0.13 0.13 0.13 0.13 0.12 0.12